Location: Unspecified
(35.7250°N, 0.0000°E)
Time: 03:17:04
(UTC+00:00)

Vanguard 2 - Pass Details

Date: 20 June 2019
Orbit: 553 x 2938 km, 32.9° (Epoch: 19 July)

Event Time Altitude Azimuth Distance (km) Brightness Sun altitude
Rises 07:15:54 0° 216° (SW) 2,935 10.1 28.0°
Reaches altitude 10° 07:18:14 10° 202° (SSW) 2,190 9.7 28.5°
Maximum altitude 07:22:26 26° 145° (SE) 1,678 9.8 29.3°
Drops below altitude 10° 07:28:20 10° 92° (E) 3,169 12.2 30.5°
Sets 07:32:28 0° 82° (E) 4,583 12.7 31.3°
